Change the Weather History Date:

Monday, July 15, 2013

  Actual Average Record
Temperature  
Mean Temperature 64 °F -  
Max Temperature 71 °F 74 °F 85 °F (1955)
Min Temperature 59 °F 59 °F 49 °F (1952)
Growing Degree Days 14 (Base 50)    
Moisture  
Dew Point 56 °F    
Average Humidity 76    
Maximum Humidity 87    
Minimum Humidity 61    
Precipitation  
Precipitation 0.00 in - - ()
Sea Level Pressure  
Sea Level Pressure 29.86 in    
Wind  
Wind Speed 6 mph (West)    
Max Wind Speed 20 mph    
Max Gust Speed 25 mph    
Visibility 8 miles    
Events      
Averages and records for this station are not official NWS values.
T = Trace of Precipitation, MM = Missing Value Source: NWS Daily Summary

Daily Weather History Graph

Daily Weather History Graph

Search for Another Location

Airport or City:

Trip Planner

Search our weather history database for the weather conditions in past years. The results will help you decide how hot, cold, wet, or windy it might be!

Date:

Astronomy

Jul. 15, 2013 Rise Set
Actual Time 5:56 AM PDT 8:08 PM PDT
Civil Twilight 5:27 AM PDT 8:37 PM PDT
Nautical Twilight 4:52 AM PDT 9:12 PM PDT
Astronomical Twilight 4:15 AM PDT 9:50 PM PDT
Moon 12:58 PM PDT (7/15) No Moon Set
Length of Visible Light 15h 09m
Length of Day
14h 12m
Waxing Crescent, 46% of the Moon is Illuminated
Jul 15
Waxing Crescent
Jul 15
First Quarter
Jul 22
Full
Jul 29
Last Quarter
Aug 6
New

Hourly Weather History & Observations

Time (PDT) Temp. Dew Point Humidity Pressure Visibility Wind Dir Wind Speed Gust Speed Precip Events Conditions
12:51 AM 62.1 °F 55.9 °F 80% 29.86 in 7.0 mi West 3.5 mph - N/A   Clear
1:51 AM 62.1 °F 55.9 °F 80% 29.85 in 7.0 mi WSW 3.5 mph - N/A   Clear
2:51 AM 61.0 °F 55.9 °F 83% 29.85 in 7.0 mi West 3.5 mph - N/A   Clear
3:51 AM 61.0 °F 55.9 °F 83% 29.84 in 7.0 mi WSW 3.5 mph - N/A   Clear
4:51 AM 61.0 °F 55.9 °F 83% 29.85 in 7.0 mi Calm Calm - N/A   Clear
5:51 AM 61.0 °F 55.9 °F 83% 29.85 in 7.0 mi Calm Calm - N/A   Clear
6:51 AM 61.0 °F 55.9 °F 83% 29.86 in 6.0 mi Calm Calm - N/A   Haze
7:51 AM 64.0 °F 57.0 °F 78% 29.87 in 7.0 mi Calm Calm - N/A   Clear
8:51 AM 66.9 °F 57.0 °F 70% 29.88 in 8.0 mi Calm Calm - N/A   Clear
9:51 AM 66.9 °F 55.9 °F 68% 29.88 in 9.0 mi West 9.2 mph - N/A   Clear
10:51 AM 68.0 °F 57.9 °F 70% 29.88 in 9.0 mi West 12.7 mph - N/A   Clear
11:51 AM 69.1 °F 57.9 °F 68% 29.88 in 8.0 mi West 12.7 mph - N/A   Clear
12:51 PM 69.1 °F 57.0 °F 65% 29.88 in 9.0 mi West 13.8 mph - N/A   Clear
1:51 PM 69.1 °F 55.9 °F 63% 29.87 in 10.0 mi West 13.8 mph - N/A   Clear
2:51 PM 69.1 °F 55.0 °F 61% 29.86 in 10.0 mi West 17.3 mph - N/A   Clear
3:51 PM 68.0 °F 55.9 °F 65% 29.85 in 9.0 mi West 19.6 mph 25.3 mph N/A   Clear
4:51 PM 68.0 °F 55.9 °F 65% 29.84 in 10.0 mi West 19.6 mph - N/A   Clear
5:51 PM 66.0 °F 55.9 °F 70% 29.83 in 9.0 mi West 15.0 mph - N/A   Clear
6:51 PM 64.0 °F 55.9 °F 75% 29.83 in 9.0 mi West 16.1 mph - N/A   Clear
7:51 PM 62.1 °F 55.9 °F 80% 29.83 in 9.0 mi West 13.8 mph - N/A   Clear
8:51 PM 60.1 °F 55.9 °F 86% 29.84 in 9.0 mi West 10.4 mph - N/A   Clear
9:51 PM 60.1 °F 55.9 °F 86% 29.85 in 9.0 mi WNW 4.6 mph - N/A   Clear
10:51 PM 60.1 °F 55.9 °F 86% 29.86 in 8.0 mi WNW 4.6 mph - N/A   Clear
11:51 PM 59.0 °F 55.0 °F 87% 29.87 in 9.0 mi WNW 3.5 mph - N/A   Clear